Location: Krasnoyarskiy Pitomnik
(51.1333°N, 71.6167°E)
Time: 10:14:01
(UTC+00:00)

Resurs 01 Rocket - Pass Details

Date: 22 October 2021
Orbit: 635 x 643 km, 97.9° (Epoch: 06 December)

Event Time Altitude Azimuth Distance (km) Brightness Sun altitude
Exits shadow 14:17:16 12° 24° (NNE) 1,887 3.9 -21.2°
Drops below altitude 10° 14:17:54 10° 17° (NNE) 2,041 4.1 -21.2°
Sets 14:20:45 0° 358° (N) 2,957 5.2 -21.7°
